Cosmos 1809 Rocket - Orbit

View from above orbital plane
View from above orbital plane
View from above satellite
View from above satellite

Ground track
Ground track

The orbit data is extracted from the following two-line orbital elements,

1 17242U 86101B   13168.52356578  .00000011  00000-0 -32416-5 0   841
2 17242 082.5319 103.9927 0015426 175.9685 312.2544 13.83231321337793
Epoch (UTC): 17 June 2013 12:33:56
Eccentricity: 0.0015426
inclination: 82.5319°
perigee height: 941 km
apogee height: 964 km
right ascension of ascending node: 103.9927°
argument of perigee: 175.9685°
revolutions per day: 13.83231321
mean anomaly at epoch: 312.2544°
orbit number at epoch: 33779

The dashed part of the orbit path shows where the satellite is in the earth's shadow,  

Developed and maintained by Chris Peat, Heavens-Above GmbH. Please read the updated FAQ before sending e-mail. Imprint. DLR